GFSNE_prec_sndepth_000.txt.gz
Snowfall_Accumulation
0.0 0.0 0.0 0.0 0.0 0.0 0.0 0.0 0.0 0.1 0.0 0.0 0.0 0.0 0.0 0.0 0.0 0.0 0.0 nan nan nan nan nan nan nan nan nan nan nan nan nan nan nan nan nan nan nan
0.0 0.0 0.0 0.0 0.0 0.0 0.0 0.0 0.0 0.0 0.0 0.0 0.0 0.0 0.0 0.0 0.0 0.0 0.0 nan nan nan nan nan nan nan nan nan nan nan nan nan nan nan nan nan nan nan
0.0 0.0 0.0 0.0 0.0 0.0 0.0 0.0 0.0 0.0 0.0 0.0 0.0 0.0 0.0 0.0 0.0 0.0 0.0 0.0 0.0 nan nan nan nan nan nan nan nan nan nan nan nan nan nan nan nan nan
0.0 0.0 0.0 0.0 0.0 0.0 0.0 0.0 0.0 0.0 0.0 0.0 0.0 0.0 0.0 0.0 0.0 0.0 0.0 0.0 0.0 nan nan nan nan nan nan nan nan nan nan nan nan nan nan nan nan nan
0.0 0.0 0.0 0.0 0.0 0.0 0.0 0.0 0.0 0.0 0.0 0.0 0.0 0.0 0.0 0.0 0.0 0.0 0.0 0.0 0.0 nan nan nan nan nan nan nan nan nan nan nan nan nan nan nan nan nan
0.0 0.0 0.0 0.0 0.0 0.0 0.0 0.0 0.0 0.0 0.0 0.0 0.0 0.0 0.0 0.0 0.0 0.0 0.0 0.0 0.0 0.0 nan nan nan nan nan nan nan nan nan nan nan nan nan nan nan nan
0.0 0.0 0.0 nan nan nan 0.0 0.0 0.0 0.0 0.0 0.0 0.0 0.0 0.0 0.0 0.0 0.0 0.0 0.0 0.0 0.0 0.0 0.0 0.0 0.0 0.0 nan nan nan nan nan nan nan nan nan nan nan
0.0 0.0 0.0 0.0 0.0 nan nan nan nan 0.0 0.0 0.0 0.0 0.0 0.0 0.0 0.0 0.0 0.0 0.0 0.2 0.1 0.1 0.4 0.0 0.0 0.0 0.0 nan nan nan nan nan nan nan nan nan nan
0.0 0.0 0.0 0.0 nan 0.0 nan nan nan nan 0.0 0.0 0.1 0.0 0.0 0.0 0.0 0.0 0.1 0.1 0.1 0.0 0.2 0.7 0.6 0.5 0.2 0.0 nan nan nan nan nan nan nan nan nan nan
0.0 0.0 0.0 0.0 0.0 0.0 0.0 0.0 0.0 0.0 0.0 0.0 0.0 0.0 0.0 0.0 0.0 0.0 0.0 0.0 0.3 0.0 0.0 2.6 1.3 1.9 0.9 0.4 nan nan nan nan nan nan nan nan nan nan
0.0 0.0 0.0 0.0 nan nan 0.3 0.8 0.2 0.0 nan nan nan nan nan nan nan 0.5 2.0 2.0 5.5 0.4 0.3 0.9 1.9 2.2 1.6 1.6 1.0 nan nan nan nan nan nan nan nan nan
0.5 0.2 nan 0.0 nan nan 0.9 0.9 1.1 0.1 0.0 0.0 0.0 0.0 nan nan nan 0.0 0.4 2.1 2.0 2.5 0.6 1.3 0.5 1.3 3.3 2.3 1.5 1.5 1.1 nan nan nan nan nan nan 0.4
1.7 1.5 1.2 nan nan nan nan 1.5 1.0 0.0 0.2 0.5 0.1 0.1 0.0 0.0 0.0 0.0 0.0 0.6 1.7 1.1 0.0 0.1 0.7 0.9 1.6 2.3 2.5 2.1 1.6 2.4 1.6 1.1 nan nan nan 0.4
2.0 1.7 1.7 nan nan nan 0.7 nan nan 0.6 5.1 4.2 2.9 1.9 1.5 1.3 0.0 0.0 0.0 0.0 0.0 0.2 0.0 0.1 1.9 0.8 1.2 2.4 2.3 2.4 2.5 3.0 2.5 2.9 2.3 nan nan nan
4.2 3.2 nan nan nan 1.3 nan nan 0.6 4.4 4.8 5.7 3.1 1.6 1.0 0.2 0.1 0.7 0.4 0.1 0.1 0.6 0.2 0.4 1.2 0.4 1.2 2.0 2.4 3.1 3.4 3.3 4.3 4.4 4.3 2.6 2.3 1.7
1.0 3.2 0.6 2.4 0.8 1.1 2.2 3.0 3.6 4.4 4.3 3.8 2.6 1.4 1.3 2.2 2.3 1.3 2.4 2.7 3.6 3.2 1.9 0.9 0.6 0.6 3.1 1.5 1.1 2.9 2.6 4.2 3.4 3.8 4.6 5.0 3.1 2.4
4.0 7.6 4.7 3.6 3.2 2.6 3.5 3.2 3.0 3.0 3.7 4.7 4.1 3.0 2.3 2.0 2.7 2.8 2.4 2.7 4.7 3.3 2.4 2.1 1.4 1.9 2.0 1.7 5.6 1.8 2.2 2.1 2.2 3.7 4.3 3.5 3.5 3.8
4.2 6.3 12.0 12.8 7.6 3.4 5.2 4.5 4.4 3.2 3.1 3.7 5.4 3.5 3.1 3.4 3.3 4.2 3.6 4.0 4.4 3.4 2.8 1.9 2.3 3.2 2.9 4.7 2.1 1.7 1.4 2.0 2.1 2.8 3.4 4.6 2.5 2.7
6.8 7.0 14.7 16.8 10.0 3.7 4.1 3.9 5.2 4.9 2.6 4.1 4.9 5.9 5.9 4.3 5.2 5.0 6.1 5.4 5.8 3.5 2.4 3.6 3.7 3.4 3.9 7.2 2.9 nan 3.2 2.2 6.0 6.7 4.1 4.2 3.3 2.7
3.9 6.8 10.1 10.9 5.5 3.7 3.9 4.8 5.4 7.2 7.4 5.9 7.7 10.6 11.9 8.3 7.3 4.9 4.5 7.0 5.1 3.4 3.0 1.9 2.8 3.0 3.2 7.5 13.1 11.1 nan 8.6 7.6 8.1 5.5 4.6 3.5 nan
4.2 3.7 8.1 5.4 5.7 4.3 13.2 14.2 17.3 15.9 16.2 19.0 10.9 10.6 22.0 6.1 7.3 5.3 5.9 5.1 4.4 2.7 2.9 2.8 3.0 0.5 2.8 7.3 25.1 12.8 12.6 nan 5.9 5.7 4.7 5.4 3.2 2.2
7.5 4.6 4.9 5.0 8.0 7.5 15.8 23.5 21.6 21.5 15.5 11.3 20.6 28.5 26.2 12.5 10.3 8.6 11.4 10.9 4.5 5.7 3.3 2.8 2.0 1.3 4.4 3.5 4.3 17.3 7.8 8.7 nan nan nan nan 4.8 4.3
14.2 5.7 8.5 10.6 8.7 10.7 6.1 13.1 6.2 27.9 11.5 11.6 11.0 11.5 46.6 15.1 8.8 9.0 9.9 6.9 4.8 5.2 3.9 3.7 2.3 1.9 2.6 2.4 4.1 7.2 6.3 10.8 5.0 4.4 10.1 nan nan nan

GFSNE_prec_sndepth_003.txt.gz
Snowfall_Accumulation
0.0 0.0 0.0 0.0 0.0 0.0 0.0 0.0 0.0 0.2 0.0 0.0 0.0 0.0 0.0 0.0 0.0 0.0 0.0 nan nan nan nan nan nan nan nan nan nan nan nan nan nan nan nan nan nan nan
0.0 0.0 0.0 0.0 0.0 0.0 0.0 0.0 0.0 0.0 0.0 0.0 0.0 0.0 0.0 0.0 0.0 0.0 0.0 nan nan nan nan nan nan nan nan nan nan nan nan nan nan nan nan nan nan nan
0.0 0.0 0.0 0.0 0.0 0.0 0.0 0.0 0.0 0.0 0.0 0.0 0.0 0.0 0.0 0.0 0.0 0.0 0.0 0.0 0.0 nan nan nan nan nan nan nan nan nan nan nan nan nan nan nan nan nan
0.0 0.0 0.0 0.0 0.0 0.0 0.0 0.0 0.0 0.0 0.0 0.0 0.0 0.0 0.0 0.0 0.0 0.0 0.0 0.0 0.0 nan nan nan nan nan nan nan nan nan nan nan nan nan nan nan nan nan
0.0 0.0 0.0 0.0 0.0 0.0 0.0 0.0 0.0 0.0 0.0 0.0 0.0 0.0 0.0 0.0 0.0 0.0 0.0 0.0 0.0 nan nan nan nan nan nan nan nan nan nan nan nan nan nan nan nan nan
0.0 0.0 0.0 0.0 0.0 0.0 0.0 0.0 0.0 0.0 0.0 0.0 0.0 0.0 0.0 0.0 0.0 0.0 0.0 0.0 0.0 0.0 nan nan nan nan nan nan nan nan nan nan nan nan nan nan nan nan
0.0 0.0 0.0 nan nan nan 0.0 0.0 0.0 0.0 0.0 0.0 0.0 0.0 0.0 0.0 0.0 0.0 0.0 0.0 0.0 0.0 0.0 0.0 0.0 0.0 0.0 nan nan nan nan nan nan nan nan nan nan nan
0.0 0.0 0.0 0.0 0.0 nan nan nan nan 0.0 0.0 0.0 0.0 0.0 0.0 0.0 0.0 0.0 0.0 0.0 0.1 0.1 0.0 0.3 0.0 0.0 0.0 0.0 nan nan nan nan nan nan nan nan nan nan
0.0 0.0 0.0 0.0 nan 0.0 nan nan nan nan 0.0 0.0 0.1 0.0 0.0 0.0 0.0 0.0 0.0 0.0 0.0 0.0 0.1 0.5 0.5 0.4 0.1 0.0 nan nan nan nan nan nan nan nan nan nan
0.0 0.0 0.0 0.0 0.0 0.0 0.0 0.0 0.0 0.0 0.0 0.0 0.0 0.0 0.0 0.0 0.0 0.0 0.0 0.0 0.2 0.0 0.0 2.0 1.0 1.4 0.7 0.3 nan nan nan nan nan nan nan nan nan nan
0.0 0.0 0.0 0.0 nan nan 0.2 0.5 0.1 0.0 nan nan nan nan nan nan nan 0.4 1.7 1.7 4.5 0.3 0.3 0.7 1.4 1.6 1.2 1.1 0.7 nan nan nan nan nan nan nan nan nan
0.3 0.1 nan 0.0 nan nan 0.6 0.7 0.9 0.1 0.0 0.0 0.0 0.1 nan nan nan 0.0 0.4 1.7 1.7 2.1 0.4 1.0 0.4 1.0 2.6 1.6 1.0 1.0 0.8 nan nan nan nan nan nan 0.3
1.5 1.2 0.9 nan nan nan nan 1.1 0.7 0.0 0.2 0.4 0.1 0.0 0.0 0.0 0.0 0.0 0.0 0.5 1.4 0.9 0.0 0.1 0.7 0.7 1.2 1.7 1.9 1.6 1.2 1.8 1.2 0.8 nan nan nan 0.3
1.7 1.4 1.9 nan nan nan 0.6 nan nan 0.5 4.6 3.8 2.6 1.6 1.3 1.1 0.0 0.0 0.0 0.0 0.0 0.1 0.0 0.1 1.6 0.6 1.0 1.9 1.8 1.7 1.9 2.2 1.9 2.2 1.7 nan nan nan
3.9 3.0 nan nan nan 1.2 nan nan 0.5 3.9 4.2 5.2 2.8 1.4 0.9 0.2 0.1 0.6 0.3 0.1 0.1 0.3 0.1 0.2 1.0 0.3 1.0 1.6 1.9 2.4 2.6 2.5 3.3 3.5 3.3 2.1 1.8 1.3
0.9 3.1 0.6 2.3 0.7 1.0 1.9 2.5 3.1 3.8 3.8 3.4 2.3 1.2 1.1 1.8 2.0 1.1 2.0 2.2 3.0 2.5 1.0 0.4 0.3 0.3 2.5 1.2 0.9 2.3 2.0 3.4 2.7 2.9 3.7 4.3 2.6 2.0
4.1 7.5 4.9 3.8 3.5 2.4 3.0 2.7 2.6 2.6 3.3 4.3 3.8 2.7 2.0 1.7 2.2 2.3 1.9 2.2 4.0 2.7 2.0 1.7 0.7 1.1 1.4 1.0 4.7 1.5 1.8 1.7 1.7 2.9 3.3 2.7 2.6 2.9
4.4 6.5 12.3 13.1 7.9 3.5 5.2 4.4 4.1 2.9 2.8 3.3 4.9 3.1 2.8 3.1 2.9 3.5 2.9 3.1 3.6 2.8 2.3 1.6 2.0 2.8 2.5 3.9 1.8 1.4 1.2 1.6 1.6 2.0 2.6 3.7 1.9 2.0
6.9 7.2 14.9 17.0 9.9 3.7 4.0 3.9 5.1 4.8 2.4 3.8 4.6 5.4 5.7 4.2 4.9 4.2 5.1 4.5 4.8 2.7 1.9 2.8 3.0 2.9 3.7 6.8 2.6 nan 2.7 1.8 4.7 5.3 3.3 3.6 2.7 2.1
4.0 6.9 10.2 10.8 5.3 3.6 3.8 4.8 5.4 7.2 7.4 5.8 7.4 10.2 11.9 8.1 7.0 4.6 3.9 6.0 4.3 2.8 2.4 1.5 2.2 2.6 3.0 6.9 12.3 11.0 nan 7.4 6.5 6.7 4.5 3.8 3.0 nan
4.2 3.7 8.0 5.3 5.5 4.2 13.0 14.0 17.2 15.8 16.0 18.8 10.9 10.4 21.8 5.8 6.9 5.0 5.6 4.3 3.7 2.3 2.5 2.4 2.5 0.3 2.4 5.9 22.1 11.6 11.6 nan 5.2 4.9 3.9 4.6 2.7 1.9
7.3 4.5 4.8 4.9 7.9 7.5 15.6 23.2 21.3 21.2 15.3 11.2 20.4 28.2 25.9 11.7 9.9 8.5 11.3 10.1 4.1 4.9 2.9 2.3 1.6 1.1 3.7 2.9 3.8 15.1 6.6 7.5 nan nan nan nan 4.6 4.5
14.0 5.6 8.3 10.5 8.6 10.5 6.0 12.9 6.1 27.5 11.4 11.4 10.9 11.3 45.8 15.0 8.1 8.5 9.3 6.2 4.2 4.7 3.3 3.2 1.9 1.6 2.2 2.0 3.5 6.1 5.5 9.3 4.2 4.0 9.1 nan nan nan

GFSNE_prec_sndepth_006.txt.gz
Snowfall_Accumulation
0.0 0.0 0.0 0.0 0.0 0.0 0.0 0.0 0.0 0.2 0.0 0.0 0.0 0.0 0.0 0.0 0.0 0.0 0.0 nan nan nan nan nan nan nan nan nan nan nan nan nan nan nan nan nan nan nan
0.0 0.0 0.0 0.0 0.0 0.0 0.0 0.0 0.0 0.0 0.0 0.0 0.0 0.0 0.0 0.0 0.0 0.0 0.0 nan nan nan nan nan nan nan nan nan nan nan nan nan nan nan nan nan nan nan
0.0 0.0 0.0 0.0 0.0 0.0 0.0 0.0 0.0 0.0 0.0 0.0 0.0 0.0 0.0 0.0 0.0 0.0 0.0 0.0 0.0 nan nan nan nan nan nan nan nan nan nan nan nan nan nan nan nan nan
0.0 0.0 0.0 0.0 0.0 0.0 0.0 0.0 0.0 0.0 0.0 0.0 0.0 0.0 0.0 0.0 0.0 0.0 0.0 0.0 0.0 nan nan nan nan nan nan nan nan nan nan nan nan nan nan nan nan nan
0.0 0.0 0.0 0.0 0.0 0.0 0.0 0.0 0.0 0.0 0.0 0.0 0.0 0.0 0.0 0.0 0.0 0.0 0.0 0.0 0.0 nan nan nan nan nan nan nan nan nan nan nan nan nan nan nan nan nan
0.0 0.0 0.0 0.0 0.0 0.0 0.0 0.0 0.0 0.0 0.0 0.0 0.0 0.0 0.0 0.0 0.0 0.0 0.0 0.0 0.0 0.0 nan nan nan nan nan nan nan nan nan nan nan nan nan nan nan nan
0.0 0.0 0.0 nan nan nan 0.0 0.0 0.0 0.0 0.0 0.0 0.0 0.0 0.0 0.0 0.0 0.0 0.0 0.0 0.0 0.0 0.0 0.0 0.0 0.0 0.0 nan nan nan nan nan nan nan nan nan nan nan
0.0 0.0 0.0 0.0 0.0 nan nan nan nan 0.0 0.0 0.0 0.0 0.0 0.0 0.0 0.0 0.0 0.0 0.0 0.1 0.1 0.0 0.3 0.0 0.0 0.0 0.0 nan nan nan nan nan nan nan nan nan nan
0.0 0.0 0.0 0.0 nan 0.0 nan nan nan nan 0.0 0.0 0.1 0.0 0.0 0.0 0.0 0.0 0.0 0.0 0.0 0.0 0.1 0.5 0.5 0.4 0.1 0.0 nan nan nan nan nan nan nan nan nan nan
0.0 0.0 0.0 0.0 0.0 0.0 0.0 0.0 0.0 0.0 0.0 0.0 0.0 0.0 0.0 0.0 0.0 0.0 0.0 0.0 0.2 0.0 0.0 1.9 0.9 1.3 0.7 0.3 nan nan nan nan nan nan nan nan nan nan
0.0 0.0 0.0 0.0 nan nan 0.2 0.5 0.1 0.0 nan nan nan nan nan nan nan 0.4 1.7 1.9 4.5 0.3 0.2 0.7 1.3 1.5 1.1 1.0 0.7 nan nan nan nan nan nan nan nan nan
0.3 0.1 nan 0.0 nan nan 0.6 0.8 1.1 0.1 0.0 0.0 0.0 0.0 nan nan nan 0.0 0.3 1.7 1.6 2.0 0.4 1.0 0.4 0.9 2.6 1.5 0.9 0.9 0.8 nan nan nan nan nan nan 0.3
1.4 1.2 0.9 nan nan nan nan 1.1 0.7 0.0 0.1 0.4 0.0 0.0 0.0 0.0 0.0 0.0 0.0 0.5 1.4 0.8 0.0 0.1 0.8 0.7 1.2 1.7 1.8 1.5 1.1 1.6 1.1 0.7 nan nan nan 0.3
1.8 1.5 2.3 nan nan nan 0.6 nan nan 0.5 4.5 3.8 2.6 1.7 1.3 1.1 0.0 0.0 0.0 0.0 0.0 0.1 0.0 0.1 1.9 0.6 0.9 1.8 1.8 1.6 1.8 2.1 1.8 2.1 1.7 nan nan nan
4.1 3.0 nan nan nan 1.2 nan nan 0.5 4.1 4.7 5.4 2.9 1.5 0.9 0.2 0.1 0.5 0.2 0.1 0.1 0.3 0.1 0.2 1.0 0.3 1.0 1.7 1.8 2.3 2.5 2.3 2.9 3.2 3.1 2.0 1.7 1.2
1.0 3.1 0.7 2.3 0.7 1.3 2.0 2.6 3.1 3.9 3.9 3.6 2.4 1.2 1.1 1.8 1.9 1.1 2.0 2.1 2.9 2.3 0.9 0.4 0.3 0.3 2.4 1.2 0.9 2.2 1.9 3.3 2.5 2.6 3.3 4.0 2.4 1.9
4.2 7.7 5.0 3.9 3.7 2.5 3.0 2.8 2.7 2.6 3.4 4.3 3.9 2.7 2.0 1.7 2.1 2.1 1.8 2.1 3.9 2.6 2.0 1.6 0.6 0.9 1.3 1.0 4.6 1.5 1.7 1.6 1.6 2.5 3.2 2.4 2.4 2.6
4.5 6.6 12.5 13.3 8.1 3.8 5.4 4.5 4.1 3.0 2.9 3.4 4.9 3.1 2.9 3.1 2.9 3.4 2.8 3.0 3.5 2.6 2.2 1.5 1.9 2.8 2.4 3.7 1.7 1.4 1.1 1.5 1.5 1.8 2.4 3.7 1.9 1.8
7.0 7.3 15.1 17.0 9.9 3.6 4.0 3.9 5.2 4.9 2.4 3.8 4.6 5.4 5.7 4.2 4.9 4.2 4.9 4.3 4.6 2.7 1.7 2.7 2.8 2.9 3.8 6.8 2.5 nan 2.6 1.7 4.5 5.1 3.2 3.5 3.2 2.5
4.1 7.0 10.1 10.7 5.3 3.6 3.8 4.7 5.4 7.2 7.4 5.9 7.5 10.3 11.8 8.2 7.1 4.6 3.9 6.0 4.2 2.7 2.4 1.4 2.2 2.5 3.3 7.2 12.6 11.0 nan 7.6 6.6 6.6 4.4 3.6 3.2 nan
4.2 3.6 7.9 5.2 5.5 4.2 13.0 13.9 17.2 15.8 16.0 18.7 10.9 10.5 21.8 5.8 6.9 5.0 5.6 4.3 3.7 2.2 2.5 2.4 2.5 0.3 2.3 5.6 21.9 11.6 11.5 nan 5.2 4.9 3.9 4.6 3.2 1.9
7.3 4.5 4.8 4.9 7.9 7.4 15.5 23.0 21.1 21.0 15.3 11.1 20.2 28.0 25.8 11.8 9.9 8.5 11.3 10.1 4.1 4.9 2.9 2.3 1.5 1.0 3.6 2.9 3.9 15.2 6.7 7.5 nan nan nan nan 4.7 4.8
13.9 5.5 8.3 10.4 8.5 10.5 6.0 12.8 6.0 27.2 11.3 11.4 10.8 11.3 45.3 14.9 8.2 8.5 9.3 6.2 4.2 4.7 3.3 3.3 1.9 1.5 2.2 2.0 3.5 6.1 5.5 9.3 4.3 4.3 9.1 nan nan nan

GFSNE_prec_sndepth_009.txt.gz
Snowfall_Accumulation
0.0 0.0 0.0 0.0 0.0 0.0 0.0 0.0 0.0 0.2 0.0 0.0 0.0 0.0 0.0 0.0 0.0 0.0 0.0 nan nan nan nan nan nan nan nan nan nan nan nan nan nan nan nan nan nan nan
0.0 0.0 0.0 0.0 0.0 0.0 0.0 0.0 0.0 0.0 0.1 0.0 0.0 0.0 0.0 0.0 0.0 0.0 0.0 nan nan nan nan nan nan nan nan nan nan nan nan nan nan nan nan nan nan nan
0.0 0.0 0.0 0.0 0.0 0.0 0.0 0.0 0.0 0.0 0.1 0.0 0.0 0.0 0.0 0.0 0.0 0.0 0.0 0.0 0.0 nan nan nan nan nan nan nan nan nan nan nan nan nan nan nan nan nan
0.0 0.0 0.0 0.0 0.0 0.0 0.0 0.0 0.0 0.0 0.0 0.0 0.0 0.0 0.0 0.0 0.0 0.0 0.0 0.0 0.0 nan nan nan nan nan nan nan nan nan nan nan nan nan nan nan nan nan
0.0 0.0 0.0 0.0 0.0 0.0 0.0 0.0 0.0 0.0 0.0 0.0 0.0 0.0 0.0 0.0 0.0 0.0 0.0 0.0 0.0 nan nan nan nan nan nan nan nan nan nan nan nan nan nan nan nan nan
0.0 0.0 0.0 0.0 0.0 0.0 0.0 0.0 0.0 0.0 0.0 0.0 0.0 0.0 0.0 0.0 0.0 0.0 0.0 0.0 0.0 0.0 nan nan nan nan nan nan nan nan nan nan nan nan nan nan nan nan
0.0 0.0 0.0 nan nan nan 0.0 0.0 0.0 0.0 0.0 0.0 0.0 0.0 0.0 0.0 0.0 0.0 0.0 0.0 0.0 0.0 0.0 0.0 0.0 0.0 0.0 nan nan nan nan nan nan nan nan nan nan nan
0.0 0.0 0.0 0.0 0.0 nan nan nan nan 0.0 0.0 0.0 0.0 0.0 0.0 0.0 0.0 0.0 0.0 0.0 0.1 0.1 0.0 0.3 0.0 0.0 0.0 0.0 nan nan nan nan nan nan nan nan nan nan
0.0 0.0 0.0 0.0 nan 0.0 nan nan nan nan 0.0 0.0 0.1 0.0 0.0 0.0 0.0 0.0 0.0 0.0 0.0 0.0 0.1 0.5 0.5 0.4 0.1 0.0 nan nan nan nan nan nan nan nan nan nan
0.0 0.0 0.0 0.0 0.0 0.0 0.0 0.0 0.0 0.0 0.0 0.0 0.0 0.0 0.0 0.0 0.0 0.0 0.0 0.0 0.2 0.0 0.0 1.9 0.9 1.3 0.7 0.3 nan nan nan nan nan nan nan nan nan nan
0.0 0.0 0.0 0.0 nan nan 0.2 0.5 0.1 0.0 nan nan nan nan nan nan nan 0.4 1.7 1.9 4.5 0.3 0.2 0.7 1.3 1.5 1.1 1.0 0.7 nan nan nan nan nan nan nan nan nan
0.3 0.1 nan 0.0 nan nan 0.7 1.0 1.2 0.2 0.1 0.0 0.0 0.0 nan nan nan 0.0 0.4 2.0 1.6 2.0 0.4 1.0 0.4 0.9 2.6 1.5 0.9 1.0 0.8 nan nan nan nan nan nan 0.3
1.4 1.2 0.9 nan nan nan nan 1.1 0.7 0.0 0.2 0.3 0.0 0.0 0.0 0.0 0.0 0.0 0.0 0.5 1.5 0.9 0.0 0.1 0.8 0.7 1.2 1.7 1.8 1.5 1.1 1.6 1.1 0.7 nan nan nan 0.3
2.0 1.6 2.3 nan nan nan 0.7 nan nan 0.5 4.5 3.8 2.7 1.7 1.3 1.1 0.0 0.2 0.1 0.0 0.0 0.1 0.0 0.1 2.4 0.6 0.9 1.8 1.8 1.6 1.8 2.1 1.8 2.1 1.7 nan nan nan
4.2 3.2 nan nan nan 1.2 nan nan 0.5 4.2 5.2 5.6 3.0 1.6 1.0 0.2 0.1 0.5 0.2 0.1 0.1 0.3 0.1 0.2 1.3 0.3 1.1 1.8 1.9 2.3 2.5 2.3 3.0 3.1 2.9 2.0 1.7 1.2
1.0 3.3 0.7 2.4 0.8 1.4 2.0 2.6 3.3 4.1 3.9 3.8 2.4 1.2 1.1 1.8 2.0 1.1 2.1 2.4 3.0 2.3 0.9 0.4 0.3 0.3 2.5 1.2 0.9 2.2 1.9 3.3 2.5 2.5 3.0 3.8 2.3 1.8
4.3 7.8 5.0 3.9 3.7 2.6 3.0 2.8 2.7 2.6 3.4 4.3 3.9 2.8 2.0 1.7 2.1 2.2 1.9 2.1 4.0 2.7 2.0 1.6 0.6 0.9 1.3 1.0 4.7 1.5 1.7 1.6 1.6 2.5 3.2 2.5 2.2 2.4
4.6 6.7 12.5 13.3 8.1 3.9 5.5 4.6 4.1 3.2 2.9 3.4 5.0 3.1 2.9 3.2 2.9 3.4 2.9 3.1 3.5 2.7 2.2 1.5 1.9 2.8 2.5 3.8 1.7 1.4 1.1 1.5 1.5 1.9 2.4 3.6 1.9 1.7
7.1 7.4 15.0 16.9 9.8 3.6 4.0 3.9 5.4 5.1 2.4 3.9 4.7 5.5 5.7 4.2 5.0 4.2 4.9 4.3 4.6 2.7 2.0 3.1 3.1 2.9 3.9 6.9 2.5 nan 2.8 1.7 4.5 5.1 3.2 3.5 3.2 2.4
4.1 6.9 10.1 10.7 5.3 3.6 3.8 4.8 5.4 7.3 7.4 5.9 7.5 10.3 11.9 8.3 7.1 4.7 3.9 6.1 4.3 2.8 2.5 1.4 2.2 2.5 3.3 7.2 12.6 11.0 nan 7.7 6.6 6.6 4.5 3.6 3.2 nan
4.1 3.6 7.9 5.2 5.5 4.2 12.9 13.9 17.1 15.8 15.9 18.7 10.9 10.5 21.8 6.0 6.9 5.0 5.6 4.3 3.7 2.2 2.5 2.4 2.5 0.3 2.3 5.7 21.9 11.7 11.5 nan 5.2 4.9 3.9 4.6 3.3 2.1
7.3 4.5 4.7 4.9 7.9 7.4 15.4 22.9 21.0 20.9 15.2 11.1 20.1 27.8 25.7 11.8 10.0 8.6 11.3 10.2 4.1 4.9 2.9 2.3 1.5 1.0 3.6 2.9 3.9 15.4 6.7 7.5 nan nan nan nan 4.7 5.0
13.9 5.5 8.3 10.4 8.5 10.4 6.0 12.8 6.0 27.0 11.3 11.3 10.8 11.3 44.8 14.9 8.2 8.7 9.3 6.2 4.2 4.7 3.3 3.3 1.9 1.5 2.2 2.0 3.5 6.2 5.5 9.3 4.3 4.3 9.1 nan nan nan

GFSNE_prec_sndepth_015.txt.gz
Snowfall_Accumulation
0.0 0.0 0.0 0.0 0.0 0.0 0.0 0.0 0.9 1.9 0.3 0.0 0.0 0.0 0.0 0.0 0.0 0.0 0.0 nan nan nan nan nan nan nan nan nan nan nan nan nan nan nan nan nan nan nan
0.0 0.0 0.0 0.0 0.0 0.0 0.0 0.0 0.0 0.4 0.9 0.0 0.0 0.0 0.0 0.0 0.0 0.0 0.0 nan nan nan nan nan nan nan nan nan nan nan nan nan nan nan nan nan nan nan
0.0 0.0 0.0 0.0 0.0 0.0 0.0 0.0 0.0 0.0 0.2 0.0 0.0 0.0 0.0 0.0 0.0 0.0 0.0 0.0 0.0 nan nan nan nan nan nan nan nan nan nan nan nan nan nan nan nan nan
0.0 0.0 0.0 0.0 0.0 0.0 0.0 0.0 0.0 0.0 0.0 0.0 0.0 0.0 0.0 0.0 0.0 0.0 0.0 0.0 0.0 nan nan nan nan nan nan nan nan nan nan nan nan nan nan nan nan nan
0.0 0.0 0.0 0.0 0.0 0.0 0.0 0.0 0.0 0.0 0.0 0.0 0.0 0.0 0.0 0.0 0.0 0.0 0.0 0.0 0.0 nan nan nan nan nan nan nan nan nan nan nan nan nan nan nan nan nan
0.0 0.0 0.0 0.0 0.0 0.0 0.0 0.0 0.0 0.0 0.0 0.1 0.0 0.0 0.0 0.0 0.0 0.0 0.0 0.0 0.0 0.0 nan nan nan nan nan nan nan nan nan nan nan nan nan nan nan nan
0.0 0.0 0.0 nan nan nan 0.0 0.0 0.0 0.2 0.2 0.1 0.1 0.0 0.0 0.0 0.0 0.0 0.0 0.0 0.0 0.0 0.0 0.0 0.0 0.0 0.0 nan nan nan nan nan nan nan nan nan nan nan
0.0 0.0 0.0 0.0 0.0 nan nan nan nan 0.4 0.3 0.3 0.1 0.2 0.0 0.0 0.0 0.0 0.0 0.0 0.1 0.1 0.0 0.3 0.0 0.0 0.0 0.0 nan nan nan nan nan nan nan nan nan nan
0.0 0.0 0.0 0.0 nan 0.0 nan nan nan nan 0.0 0.2 0.2 0.0 0.1 0.0 0.0 0.0 0.0 0.0 0.0 0.0 0.1 0.5 0.5 0.4 0.1 0.0 nan nan nan nan nan nan nan nan nan nan
0.0 0.0 0.0 0.0 0.0 0.0 0.5 0.3 0.0 0.0 0.0 0.0 0.1 0.0 0.0 0.0 0.0 0.0 0.0 0.0 0.2 0.0 0.0 2.0 0.9 1.3 0.7 0.3 nan nan nan nan nan nan nan nan nan nan
0.0 0.0 0.0 0.1 nan nan 0.4 0.6 0.1 0.0 nan nan nan nan nan nan nan 0.8 1.7 1.9 4.5 0.3 0.2 0.7 1.3 1.5 1.1 1.0 0.7 nan nan nan nan nan nan nan nan nan
0.3 0.1 nan 0.1 nan nan 1.2 1.2 1.3 0.2 0.1 0.0 0.0 0.0 nan nan nan 0.0 0.4 2.0 1.7 2.0 0.4 1.0 0.4 0.9 2.6 1.5 0.9 1.0 0.8 nan nan nan nan nan nan 0.3
1.4 1.2 0.9 nan nan nan nan 1.5 1.1 0.2 0.3 0.5 0.1 0.0 0.0 0.0 0.0 0.0 0.0 0.5 1.5 0.9 0.0 0.1 0.8 0.7 1.2 1.7 1.8 1.5 1.1 1.6 1.1 0.7 nan nan nan 0.3
2.0 1.6 2.5 nan nan nan 1.0 nan nan 0.6 4.8 4.1 3.0 1.9 1.5 1.2 0.1 0.3 0.3 0.1 0.0 0.1 0.0 0.1 2.5 0.6 0.9 1.9 1.9 1.6 1.8 2.1 1.8 2.1 1.7 nan nan nan
4.2 3.5 nan nan nan 1.3 nan nan 0.6 4.4 5.4 5.8 3.2 1.8 1.3 0.4 0.2 0.7 0.3 0.3 0.2 0.3 0.1 0.2 1.5 0.4 1.1 1.8 1.9 2.3 2.5 2.3 3.0 3.2 2.9 2.0 1.7 1.2
1.0 3.3 0.7 2.5 0.8 1.5 2.0 2.7 3.4 4.3 4.3 4.1 2.6 1.4 1.2 1.9 2.3 1.5 2.3 2.5 3.2 2.4 1.0 0.5 0.3 0.4 2.8 1.3 1.0 2.2 1.9 3.3 2.5 2.5 2.9 3.6 2.2 1.7
4.2 7.7 5.0 3.8 3.7 2.6 3.0 2.9 2.7 2.6 3.6 4.6 4.1 3.0 2.2 2.0 2.5 2.5 2.4 2.5 4.2 2.8 2.0 1.7 0.7 1.0 1.4 1.0 5.0 1.5 1.7 1.6 1.6 2.5 3.2 2.5 2.2 2.4
4.6 6.7 12.5 13.2 8.1 3.9 5.5 4.6 4.1 3.3 3.0 3.6 5.1 3.3 3.2 3.5 3.3 3.5 2.9 3.2 3.7 2.8 2.2 1.5 2.0 3.0 2.8 4.0 2.1 1.6 1.1 1.5 1.5 1.9 2.5 3.8 1.9 1.7
7.1 7.4 15.0 16.8 9.8 3.6 4.0 4.0 5.5 5.3 2.5 4.0 5.0 5.8 6.0 4.4 5.1 4.2 4.9 4.4 4.7 2.8 2.0 3.2 3.2 3.1 3.9 6.9 2.6 nan 3.0 1.8 4.5 5.1 3.2 3.5 3.2 2.4
4.1 6.9 10.1 10.7 5.3 3.6 3.8 4.8 5.4 7.3 7.4 6.0 7.7 10.5 12.1 8.5 7.2 4.8 4.0 6.1 4.3 2.8 2.5 1.4 2.2 2.6 3.4 7.3 12.6 11.0 nan 7.7 6.7 6.7 4.7 3.7 3.3 nan
4.1 3.6 7.9 5.3 5.5 4.2 12.9 13.8 17.0 15.7 15.8 18.5 10.9 10.6 21.7 6.1 7.0 5.1 5.7 4.3 3.7 2.2 2.5 2.4 2.5 0.3 2.3 5.8 21.9 11.7 11.5 nan 5.2 5.0 3.9 4.6 3.3 2.2
7.3 4.5 4.7 4.9 7.9 7.4 15.4 22.7 20.9 20.8 15.1 11.0 20.0 27.6 25.5 11.9 10.2 8.7 11.3 10.2 4.1 4.9 2.9 2.3 1.5 1.0 3.6 2.9 3.9 15.4 6.7 7.5 nan nan nan nan 4.7 5.0
13.8 5.5 8.3 10.4 8.5 10.4 6.0 12.7 6.0 26.8 11.2 11.3 10.7 11.2 44.0 14.8 8.2 8.6 9.3 6.2 4.2 4.7 3.3 3.3 1.9 1.5 2.2 2.0 3.5 6.4 5.5 9.3 4.3 4.3 9.1 nan nan nan

GFSNE_prec_sndepth_021.txt.gz
Snowfall_Accumulation
0.0 0.0 0.0 0.0 0.0 0.0 0.0 0.0 0.8 1.9 0.3 0.0 0.0 0.0 0.0 0.0 0.0 0.0 0.0 nan nan nan nan nan nan nan nan nan nan nan nan nan nan nan nan nan nan nan
0.0 0.0 0.0 0.0 0.0 0.0 0.0 0.0 0.0 0.3 0.8 0.0 0.0 0.0 0.0 0.0 0.0 0.0 0.0 nan nan nan nan nan nan nan nan nan nan nan nan nan nan nan nan nan nan nan
0.0 0.0 0.0 0.0 0.0 0.0 0.0 0.0 0.0 0.0 0.1 0.0 0.0 0.0 0.0 0.0 0.0 0.0 0.0 0.0 0.0 nan nan nan nan nan nan nan nan nan nan nan nan nan nan nan nan nan
0.0 0.0 0.0 0.0 0.0 0.0 0.0 0.0 0.0 0.0 0.0 0.0 0.0 0.0 0.0 0.0 0.0 0.0 0.0 0.0 0.0 nan nan nan nan nan nan nan nan nan nan nan nan nan nan nan nan nan
0.0 0.0 0.0 0.0 0.0 0.0 0.0 0.0 0.0 0.0 0.0 0.2 0.0 0.0 0.0 0.0 0.0 0.0 0.0 0.0 0.0 nan nan nan nan nan nan nan nan nan nan nan nan nan nan nan nan nan
0.0 0.0 0.0 0.0 0.0 0.0 0.0 0.0 0.0 0.1 0.0 0.1 0.0 0.1 0.1 0.0 0.0 0.0 0.0 0.0 0.0 0.0 nan nan nan nan nan nan nan nan nan nan nan nan nan nan nan nan
0.0 0.0 0.0 nan nan nan 0.0 0.0 0.1 0.3 0.3 0.3 0.1 0.1 0.0 0.0 0.1 0.0 0.3 0.1 0.0 0.0 0.0 0.0 0.0 0.0 0.0 nan nan nan nan nan nan nan nan nan nan nan
0.0 0.0 0.0 0.0 0.0 nan nan nan nan 0.6 0.9 0.7 0.2 0.2 0.0 0.1 0.0 0.0 0.1 0.0 0.1 0.0 0.0 0.2 0.0 0.0 0.0 0.0 nan nan nan nan nan nan nan nan nan nan
0.0 0.0 0.0 0.0 nan 0.0 nan nan nan nan 0.1 0.7 0.5 0.1 0.1 0.0 0.0 0.2 0.4 0.4 0.1 0.0 0.1 0.5 0.4 0.3 0.1 0.0 nan nan nan nan nan nan nan nan nan nan
0.0 0.0 0.0 0.0 0.0 0.1 0.7 0.4 0.0 0.0 0.0 0.0 0.1 0.1 0.0 0.0 0.0 0.1 0.0 0.0 0.2 0.0 0.0 1.8 0.8 1.1 0.6 0.2 nan nan nan nan nan nan nan nan nan nan
0.0 0.0 0.0 0.0 nan nan 0.5 0.7 0.1 0.0 nan nan nan nan nan nan nan 1.2 1.8 1.9 4.3 0.3 0.2 0.7 1.2 1.3 0.9 0.9 0.6 nan nan nan nan nan nan nan nan nan
0.2 0.1 nan 0.1 nan nan 1.5 1.3 1.4 0.2 0.0 0.0 0.0 0.0 nan nan nan 0.0 0.4 2.0 2.2 2.0 0.4 1.0 0.3 0.8 2.3 1.2 0.8 0.8 0.6 nan nan nan nan nan nan 0.2
1.4 1.1 0.8 nan nan nan nan 1.7 1.8 0.3 0.3 0.5 0.2 0.1 0.0 0.0 0.0 0.0 0.0 0.5 1.3 0.8 0.0 0.0 0.7 0.6 1.1 1.4 1.5 1.2 0.9 1.3 0.9 0.6 nan nan nan 0.2
1.9 1.5 2.4 nan nan nan 1.0 nan nan 0.6 4.8 4.0 3.0 1.8 1.5 1.2 0.2 0.4 0.2 0.1 0.0 0.1 0.0 0.0 2.1 0.5 0.8 1.6 1.6 1.3 1.5 1.7 1.4 1.6 1.3 nan nan nan
4.1 3.4 nan nan nan 1.3 nan nan 0.6 4.4 5.4 5.8 3.3 1.8 1.4 0.5 0.3 0.7 0.3 0.3 0.2 0.3 0.2 0.3 1.4 0.3 1.0 1.7 1.6 2.0 2.0 1.9 2.4 2.5 2.4 1.6 1.3 0.9
1.0 3.2 0.7 2.4 0.8 1.5 2.0 2.7 3.3 4.3 4.6 4.3 2.7 1.5 1.4 2.2 2.6 1.9 2.5 2.6 3.2 2.4 1.1 0.8 0.7 0.6 2.7 1.2 0.9 2.1 1.6 2.9 2.1 2.1 2.5 3.0 1.7 1.3
4.2 7.7 4.9 3.8 3.6 2.6 2.9 2.8 2.7 2.6 3.6 4.7 4.2 3.0 2.3 2.1 2.7 2.7 2.9 3.1 4.7 2.9 2.3 1.9 0.9 1.1 1.4 0.9 4.8 1.3 1.6 1.5 1.4 2.2 2.8 2.1 1.7 1.8
4.5 6.7 12.4 13.1 8.0 3.9 5.4 4.5 4.1 3.3 3.0 3.6 5.2 3.4 3.3 3.6 3.3 3.4 3.0 3.4 3.8 2.9 2.5 1.5 2.2 3.1 2.9 3.8 2.2 1.7 1.0 1.4 1.3 1.5 2.1 3.3 1.6 1.4
7.0 7.3 14.8 16.6 9.7 3.6 3.9 3.9 5.4 5.2 2.5 4.0 5.0 5.9 6.1 4.5 5.1 4.2 4.9 4.3 4.6 2.8 2.0 3.1 3.3 3.1 3.8 6.5 2.4 nan 2.6 1.6 4.0 4.7 2.9 3.3 2.9 2.0
4.0 6.9 10.0 10.6 5.2 3.6 3.7 4.7 5.3 7.2 7.3 5.9 7.6 10.5 12.1 8.5 7.1 4.8 4.0 6.1 4.2 2.6 2.3 1.3 2.0 2.5 3.4 7.0 11.6 9.8 nan 6.7 6.3 6.5 4.2 3.4 2.8 nan
4.1 3.6 7.8 5.2 5.4 4.1 12.7 13.7 16.9 15.5 15.6 18.3 10.8 10.5 21.6 6.1 7.0 5.1 5.7 4.3 3.6 2.1 2.3 2.2 2.3 0.4 2.1 5.1 20.2 10.3 10.1 nan 4.4 4.0 3.2 4.1 2.9 1.9
7.2 4.4 4.7 4.8 7.8 7.3 15.2 22.5 20.6 20.5 14.9 10.8 19.7 27.2 25.2 11.8 10.1 8.7 11.2 10.1 4.0 4.9 2.8 2.1 1.4 1.0 3.3 2.6 3.5 14.0 5.9 6.5 nan nan nan nan 3.9 4.3
13.7 5.4 8.2 10.3 8.4 10.3 5.9 12.6 6.0 26.4 11.1 11.2 10.6 11.1 43.2 14.7 8.1 8.5 9.2 6.1 4.2 4.6 3.3 3.2 1.8 1.4 2.1 1.9 3.1 5.8 5.3 8.6 3.7 3.7 7.8 nan nan nan

GFSNE_prec_sndepth_024.txt.gz
Snowfall_Accumulation
0.0 0.0 0.0 0.0 0.0 0.0 0.0 0.0 0.6 1.5 0.2 0.0 0.0 0.0 0.0 0.0 0.0 0.0 0.0 nan nan nan nan nan nan nan nan nan nan nan nan nan nan nan nan nan nan nan
0.0 0.0 0.0 0.0 0.0 0.0 0.0 0.0 0.0 0.3 0.6 0.0 0.0 0.0 0.0 0.0 0.0 0.0 0.0 nan nan nan nan nan nan nan nan nan nan nan nan nan nan nan nan nan nan nan
0.0 0.0 0.0 0.0 0.0 0.0 0.0 0.0 0.0 0.0 0.1 0.0 0.0 0.0 0.0 0.0 0.0 0.0 0.0 0.0 0.0 nan nan nan nan nan nan nan nan nan nan nan nan nan nan nan nan nan
0.0 0.0 0.0 0.0 0.0 0.0 0.0 0.0 0.0 0.0 0.0 0.0 0.0 0.0 0.0 0.0 0.0 0.0 0.0 0.0 0.0 nan nan nan nan nan nan nan nan nan nan nan nan nan nan nan nan nan
0.0 0.0 0.0 0.0 0.0 0.0 0.0 0.0 0.0 0.0 0.0 0.2 0.0 0.0 0.0 0.0 0.0 0.0 0.0 0.0 0.0 nan nan nan nan nan nan nan nan nan nan nan nan nan nan nan nan nan
0.0 0.0 0.0 0.0 0.0 0.0 0.0 0.0 0.0 0.0 0.0 0.1 0.0 0.1 0.0 0.0 0.0 0.0 0.0 0.0 0.0 0.0 nan nan nan nan nan nan nan nan nan nan nan nan nan nan nan nan
0.0 0.0 0.0 nan nan nan 0.0 0.0 0.0 0.2 0.3 0.2 0.1 0.1 0.0 0.0 0.0 0.0 0.2 0.0 0.0 0.0 0.0 0.0 0.0 0.0 0.0 nan nan nan nan nan nan nan nan nan nan nan
0.0 0.0 0.0 0.0 0.0 nan nan nan nan 0.4 0.6 0.6 0.1 0.2 0.0 0.0 0.0 0.0 0.0 0.0 0.1 0.0 0.0 0.2 0.0 0.0 0.0 0.0 nan nan nan nan nan nan nan nan nan nan
0.0 0.0 0.0 0.0 nan 0.0 nan nan nan nan 0.0 0.4 0.3 0.0 0.1 0.0 0.0 0.1 0.2 0.3 0.1 0.0 0.2 0.4 0.3 0.3 0.1 0.0 nan nan nan nan nan nan nan nan nan nan
0.0 0.0 0.0 0.0 0.0 0.0 0.5 0.2 0.0 0.0 0.0 0.0 0.1 0.0 0.0 0.0 0.0 0.0 0.0 0.0 0.2 0.0 0.0 1.5 0.6 0.8 0.4 0.2 nan nan nan nan nan nan nan nan nan nan
0.0 0.0 0.0 0.0 nan nan 0.3 0.4 0.1 0.0 nan nan nan nan nan nan nan 1.0 1.5 1.6 3.7 0.2 0.2 0.5 0.9 1.0 0.7 0.6 0.4 nan nan nan nan nan nan nan nan nan
0.1 0.0 nan 0.0 nan nan 1.1 0.9 1.2 0.1 0.0 0.0 0.0 0.0 nan nan nan 0.0 0.3 1.7 1.8 1.8 0.3 0.8 0.3 0.6 1.8 0.9 0.6 0.6 0.5 nan nan nan nan nan nan 0.2
1.1 0.9 0.6 nan nan nan nan 1.3 1.8 0.2 0.2 0.4 0.1 0.1 0.0 0.0 0.0 0.0 0.0 0.4 1.1 0.7 0.0 0.0 0.6 0.5 0.8 1.1 1.1 0.9 0.7 1.0 0.7 0.5 nan nan nan 0.2
1.3 1.2 1.9 nan nan nan 0.9 nan nan 0.5 4.5 3.9 2.7 1.7 1.3 1.1 0.1 0.3 0.1 0.0 0.0 0.0 0.0 0.0 1.6 0.4 0.7 1.3 1.3 1.0 1.1 1.2 1.0 1.2 1.0 nan nan nan
3.3 2.7 nan nan nan 1.2 nan nan 0.5 3.8 5.1 5.7 3.2 1.8 1.3 0.5 0.2 0.8 0.2 0.2 0.1 0.2 0.1 0.2 1.2 0.2 0.8 1.3 1.3 1.5 1.5 1.4 1.7 1.8 1.7 1.2 1.0 0.7
0.6 2.5 0.6 2.1 0.8 1.3 1.6 2.1 2.8 3.9 4.3 4.3 2.7 1.5 1.2 1.9 2.2 1.7 2.4 2.4 2.7 2.0 0.5 0.4 0.5 0.4 2.3 0.9 0.8 1.7 1.3 2.4 1.5 1.6 1.8 2.1 1.2 1.0
3.7 6.5 4.0 3.1 3.0 2.1 2.4 2.4 2.2 2.2 3.3 4.6 4.1 3.0 2.2 1.9 2.4 2.3 2.5 2.7 4.1 2.5 2.0 1.7 0.6 0.7 1.0 0.5 3.9 1.1 1.3 1.2 1.1 1.8 2.1 1.5 1.2 1.3
3.7 5.6 11.3 12.1 7.1 3.3 4.7 3.9 3.4 2.9 2.7 3.4 5.1 3.4 3.2 3.5 3.2 3.0 2.5 2.9 3.3 2.5 2.2 1.4 2.2 2.7 2.4 3.1 2.1 1.7 0.8 1.1 1.1 1.2 1.7 2.7 1.3 1.1
5.9 6.0 13.1 14.9 8.4 2.9 3.2 3.3 4.7 4.5 2.3 3.6 4.7 5.6 6.0 4.4 5.0 4.0 4.6 3.9 4.0 2.3 1.6 2.6 2.7 3.1 3.1 5.7 2.0 nan 3.0 1.3 3.2 3.8 2.3 2.8 2.5 1.7
3.3 5.6 8.3 8.9 4.2 2.9 3.0 3.9 4.5 6.4 6.4 5.3 7.2 10.3 11.9 8.0 7.0 4.7 3.9 6.0 3.7 2.2 1.9 1.1 1.7 2.1 3.1 7.5 10.0 8.2 nan 5.5 5.0 5.4 3.7 2.9 2.3 nan
3.2 2.8 6.4 4.2 4.4 3.3 11.1 12.2 15.9 14.3 14.8 18.0 10.2 10.1 21.3 5.9 6.4 4.7 5.5 4.1 3.3 1.7 2.0 1.9 1.9 0.1 1.8 4.0 17.7 8.9 8.6 nan 3.2 3.1 2.5 3.4 2.5 1.7
5.8 3.5 3.7 3.8 6.4 5.9 13.3 20.5 18.8 18.4 13.5 9.9 19.3 26.7 24.6 11.3 9.9 8.4 10.5 9.3 3.4 4.2 2.2 1.7 1.1 0.8 2.8 2.1 2.8 11.7 4.9 5.4 nan nan nan nan 3.4 3.9
11.4 4.4 6.6 8.8 7.3 8.9 4.9 11.0 4.9 23.7 9.8 10.3 9.7 10.4 42.5 14.4 7.6 8.4 8.7 5.4 3.5 4.1 2.7 2.8 1.5 1.2 1.8 1.6 2.5 4.7 4.0 7.2 3.1 3.1 6.7 nan nan nan

GFSNE_prec_sndepth_027.txt.gz
Snowfall_Accumulation
0.0 0.0 0.0 0.0 0.0 0.0 0.0 0.0 0.5 1.2 0.1 0.0 0.0 0.0 0.0 0.0 0.0 0.0 0.0 nan nan nan nan nan nan nan nan nan nan nan nan nan nan nan nan nan nan nan
0.0 0.0 0.0 0.0 0.0 0.0 0.0 0.0 0.0 0.2 0.5 0.0 0.0 0.0 0.0 0.0 0.0 0.0 0.0 nan nan nan nan nan nan nan nan nan nan nan nan nan nan nan nan nan nan nan
0.0 0.0 0.0 0.0 0.0 0.0 0.0 0.0 0.0 0.0 0.0 0.0 0.0 0.0 0.0 0.0 0.0 0.0 0.0 0.0 0.0 nan nan nan nan nan nan nan nan nan nan nan nan nan nan nan nan nan
0.0 0.0 0.0 0.0 0.0 0.0 0.0 0.0 0.0 0.0 0.0 0.0 0.0 0.0 0.0 0.0 0.0 0.0 0.0 0.0 0.0 nan nan nan nan nan nan nan nan nan nan nan nan nan nan nan nan nan
0.0 0.0 0.0 0.0 0.0 0.0 0.0 0.0 0.0 0.0 0.0 0.1 0.0 0.0 0.0 0.0 0.0 0.0 0.0 0.0 0.0 nan nan nan nan nan nan nan nan nan nan nan nan nan nan nan nan nan
0.0 0.0 0.0 0.0 0.0 0.0 0.0 0.0 0.0 0.0 0.0 0.0 0.0 0.0 0.0 0.0 0.0 0.0 0.0 0.0 0.0 0.0 nan nan nan nan nan nan nan nan nan nan nan nan nan nan nan nan
0.0 0.0 0.0 nan nan nan 0.0 0.0 0.0 0.2 0.2 0.2 0.1 0.0 0.0 0.0 0.0 0.0 0.2 0.0 0.0 0.0 0.0 0.0 0.0 0.0 0.0 nan nan nan nan nan nan nan nan nan nan nan
0.0 0.0 0.0 0.0 0.0 nan nan nan nan 0.2 0.4 0.5 0.1 0.1 0.0 0.0 0.0 0.0 0.0 0.0 0.1 0.0 0.0 0.2 0.0 0.0 0.0 0.0 nan nan nan nan nan nan nan nan nan nan
0.0 0.0 0.0 0.0 nan 0.0 nan nan nan nan 0.0 0.2 0.2 0.0 0.2 0.0 0.0 0.0 0.1 0.2 0.0 0.0 0.2 0.3 0.3 0.2 0.0 0.0 nan nan nan nan nan nan nan nan nan nan
0.0 0.0 0.0 0.0 0.0 0.0 0.3 0.1 0.0 0.0 0.0 0.0 0.0 0.0 0.0 0.0 0.0 0.0 0.0 0.0 0.1 0.0 0.0 1.3 0.5 0.7 0.3 0.1 nan nan nan nan nan nan nan nan nan nan
0.0 0.0 0.0 0.0 nan nan 0.2 0.2 0.0 0.0 nan nan nan nan nan nan nan 0.8 1.2 1.4 3.3 0.2 0.1 0.5 0.7 0.8 0.6 0.5 0.3 nan nan nan nan nan nan nan nan nan
0.1 0.0 nan 0.0 nan nan 0.8 0.6 0.9 0.1 0.0 0.0 0.0 0.0 nan nan nan 0.0 0.3 1.7 1.6 1.6 0.3 0.7 0.2 0.5 1.5 0.7 0.5 0.5 0.4 nan nan nan nan nan nan 0.1
0.8 0.7 0.5 nan nan nan nan 1.0 1.4 0.1 0.1 0.3 0.1 0.0 0.0 0.0 0.0 0.0 0.0 0.4 0.9 0.6 0.0 0.0 0.5 0.4 0.7 1.0 0.9 0.7 0.6 0.8 0.7 0.5 nan nan nan 0.2
0.9 1.0 1.4 nan nan nan 0.8 nan nan 0.4 3.9 3.6 2.5 1.5 1.2 0.9 0.1 0.2 0.1 0.0 0.0 0.0 0.0 0.0 1.3 0.4 0.6 1.1 1.1 0.8 0.9 1.0 0.9 1.0 1.0 nan nan nan
2.6 2.1 nan nan nan 1.2 nan nan 0.5 3.2 4.6 5.6 3.1 1.7 1.2 0.4 0.2 0.6 0.2 0.2 0.1 0.1 0.0 0.1 1.0 0.1 0.7 1.1 1.1 1.2 1.2 1.1 1.3 1.4 1.4 1.0 0.8 0.6
0.3 2.0 0.5 1.8 0.8 1.1 1.3 1.7 2.2 3.2 3.7 4.1 2.7 1.4 1.1 1.6 1.9 1.4 2.1 2.1 2.8 2.0 0.3 0.2 0.3 0.2 1.9 0.8 0.6 1.4 1.1 2.0 1.2 1.2 1.4 1.7 1.0 0.8
3.1 5.2 3.2 2.4 2.4 1.7 1.9 1.9 1.8 1.8 2.7 4.2 4.0 2.9 2.1 1.7 2.1 1.9 2.1 2.2 3.7 2.1 1.7 1.8 0.5 0.5 0.8 0.3 3.2 0.9 1.1 1.0 1.0 1.5 1.7 1.3 1.0 1.0
3.0 4.5 9.7 10.7 6.1 2.6 3.8 3.2 2.8 2.4 2.2 2.8 4.6 3.1 3.2 3.5 3.1 2.7 2.2 2.6 3.0 2.2 1.9 1.2 2.5 2.2 2.0 2.4 1.7 1.6 0.7 0.9 0.9 1.0 1.4 2.3 1.1 0.9
5.1 4.8 11.0 13.2 7.0 2.3 2.5 2.6 3.9 3.7 2.1 3.0 4.1 5.3 5.7 4.2 4.9 3.8 4.4 3.7 3.7 2.1 1.4 2.2 2.3 3.6 3.7 5.3 1.7 nan 2.9 1.2 2.6 3.1 1.9 2.3 2.2 1.4
2.7 4.6 6.9 7.3 3.4 2.2 2.3 3.0 3.6 5.5 5.5 4.5 6.6 10.0 11.7 7.8 6.6 4.4 3.8 5.9 3.6 2.0 1.6 0.9 1.5 2.0 3.6 8.9 9.2 7.4 nan 4.9 4.2 4.5 3.1 2.4 1.9 nan
2.6 2.2 5.0 3.3 3.5 2.6 9.2 10.8 14.7 13.1 13.4 17.7 9.3 9.6 21.0 5.6 6.2 4.3 5.1 4.0 3.2 1.5 1.8 1.7 1.6 0.0 1.5 3.3 16.2 7.7 7.3 nan 2.4 2.5 1.9 3.0 2.1 1.4
5.0 2.8 2.9 3.0 5.2 4.9 11.8 19.5 17.8 17.3 12.6 9.1 19.0 26.3 23.7 10.8 9.7 8.3 10.1 9.0 3.0 3.7 2.0 1.5 0.9 0.7 2.4 1.8 2.7 10.3 4.3 4.6 nan nan nan nan 3.1 3.8
9.5 3.7 5.4 7.3 6.2 7.7 4.2 9.9 4.3 22.2 9.2 9.7 9.1 9.7 41.7 14.2 7.0 7.7 8.5 5.1 3.1 3.8 2.5 2.6 1.3 1.0 1.5 1.3 2.1 4.1 3.3 6.3 2.6 2.6 5.9 nan nan nan